Regional Weather Roundup
Issued by NWS Upton, NY

Current Version | Previous Version | Graphics & Text | Print | Product List | Glossary Off
Versions: 1 2 3 4 5 6 7 8 9 10 11 12 13 14 15 16 17 18 19 20 21 22 23 24 25 26 27 28 29 30 31 32 33 34 35 36 37 38 39 40 41 42 43 44 45 46 47 48 49 50

856
ASUS41 KOKX 280804
RWROKX

REGIONAL WEATHER ROUNDUP
NATIONAL WEATHER SERVICE NEW YORK NY
400 AM EDT SAT MAY 28 2016

NOTE: "FAIR" INDICATES FEW OR NO CLOUDS BELOW 12,000 FEET WITH NO
SIGNIFICANT WEATHER AND/OR OBSTRUCTIONS TO VISIBILITY.

NYZ071-072-176-178-NJZ106-104-280900-
NEW YORK CITY METRO AREA


CITY           SKY/WX    TMP DP  RH WIND       PRES   REMARKS
CENTRAL PARK   PTCLDY    72  59  63 VRB7      30.11S
LAGUARDIA APRT PTCLDY    74  64  71 SW9       30.07S
KENNEDY INTL   MOCLDY    66  58  75 S7        30.10S
NEWARK/LIBERTY MOCLDY    73  60  63 SW12      30.08S
BRNX BOT. GARD   N/A    N/A N/A N/A SW3       30.08F
TETERBORO      PTCLDY    72  60  66 S7        30.07R
$$

NYZ177-179-078>081-280900-
LONG ISLAND NEW YORK

CITY           SKY/WX    TMP DP  RH WIND       PRES   REMARKS
FARMINGDALE    PTCLDY    65  56  72 SW5       30.10S
ISLIP          CLEAR     66  58  75 SW9       30.09S
SHIRLEY        PTCLDY    67  59  75 SW9       30.10F
RIVERHEAD        N/A     68  59  73 N2        30.08S
WESTHAMPTON    MOCLDY    64  57  78 SW13G20   30.11S
EAST HAMPTON   FAIR      65  58  76 SW13G25   30.09S
MONTAUK POINT    N/A     64  58  80 SW15G22   30.10S
$$

NYZ052-065-067-280900-
HUDSON VALLEY

CITY           SKY/WX    TMP DP  RH WIND       PRES   REMARKS
WHITE PLAINS   PTCLDY    66  61  84 CALM      30.08R
NEWBURGH       NOT AVBL
MONTGOMERY     FOG       65  65 100 CALM      30.06S VSB 1/2
POUGHKEEPSIE   CLOUDY    67  64  90 CALM      30.05R FOG
ALBANY         PTCLDY    69  65  86 CALM      30.04S
$$

NJZ001-105-106-008-010-013-015-019>022-104-280900-
NEW JERSEY

CITY           SKY/WX    TMP DP  RH WIND       PRES   REMARKS
NEWARK/LIBERTY MOCLDY    73  60  63 SW12      30.08S
TETERBORO      PTCLDY    72  60  66 S7        30.07R
CALDWELL       MOCLDY    73  64  73 SW5       30.08R
MORRISTOWN     PTCLDY    70  61  73 S5        30.09R
SOMERVILLE     CLEAR     67  65  93 CALM      30.07S
SUSSEX         PTCLDY    66  63  90 CALM      30.08S FOG
ANDOVER          N/A     70  67  90 S3        30.09S
TRENTON        PTCLDY    69  59  70 S5        30.10R
MILLVILLE      CLEAR     68  60  75 CALM      30.12R
ATLANTIC CITY  PTCLDY    68  60  75 SW5       30.12R
WRIGHTSTOWN    CLEAR     66  58  77 S1        30.09S
TOMS RIVER     CLEAR     66  54  63 CALM      30.12R
BELMAR         CLEAR     67  57  70 S7        30.12S
$$

PAZ047>061-062-071-280900-
EASTERN PENNSYLVANIA

CITY           SKY/WX    TMP DP  RH WIND       PRES   REMARKS
PHILADELPHIA   PTCLDY    69  58  67 S6        30.11S
ALLENTOWN      CLOUDY    69  64  84 SW6       30.09R
SCRANTON       CLEAR     66  63  90 SE3       30.08S
$$

CTZ002-004>006-009-010-012-RIZ004-006-007-MAZ004-011-015-280900-
SOUTHERN NEW ENGLAND
 IN CT

CITY           SKY/WX    TMP DP  RH WIND       PRES   REMARKS
BRADLEY INTL   CLOUDY    66  59  78 S9        30.05R
HARTFORD       MOCLDY    69  60  73 S5        30.06R
DANBURY        PTCLDY    64  62  93 CALM      30.09S
WTRBRY/OXFORD    N/A     64  59  82 SW3       30.10R
BRIDGEPORT     PTCLDY    66  59  78 SW5       30.07S
MERIDEN        PTCLDY    65  59  81 CALM      30.07S
NEW HAVEN      CLEAR     64  58  80 S5        30.08S
CHESTER        FAIR      66  59  77 SW8G15    30.08S
GROTON         CLEAR     61  58  90 S5        30.07F
WILLIMANTIC    CLEAR     64  59  83 CALM      30.08R

 IN RI

CITY           SKY/WX    TMP DP  RH WIND       PRES   REMARKS
PROVIDENCE     CLEAR     65  55  70 S5        30.07F
BLOCK ISLAND   PTCLDY    59  56  89 SW15      30.10S
WESTERLY       CLEAR     64  55  72 CALM      30.09S

 IN MA

CITY           SKY/WX    TMP DP  RH WIND       PRES   REMARKS
BOSTON         PTCLDY    67  57  70 SW7       30.04R
WORCESTER      CLOUDY    64  60  87 W10       30.07R
WESTFIELD      MOCLDY    64  61  90 S3        30.05S
PROVINCETOWN   PTCLDY    60  56  86 SW15      30.05F
NANTUCKET      PTCLDY    60  57  89 SW14      30.11F
$$

ANZ330-335-338-340-345-350-353-355-280900-
COASTAL MARINE OBSERVATIONS


STATION/POSITION TIME  SKY/WX   TEMP    WIND        PRES    VSBY  WAVE
                                AIR SEA DIR/SP/G                  HT/PER
                 (UTC)          (F)     (DEG/KT/KT) (MB)    (MI)  (FT/S)
NY HARB ENTRANCE 0650            62 58  210/ 12/ 14 1018.7          3/ 6
20S FIRE ISLAND  0650            61 58  220/ 14/ 16 1019.2          4/ 6
GREAT SOUTH BAY  0700            66 68  260/ 16/ 19   N/A
23 SSW MONTAUK P 0750            60 57  240/ 16/ 17 1019.0          4/ 6
15 E BARNEGAT LI 0722               59                N/A           3/ 5
HUDSON CANYON    0650            60 57              1020.5          3/ 5
KINGS POINT      0700            67 59              1018.2
EXECUTION ROCKS  NOT AVBL
CENTRAL LI SOUND 0700            64     250/  6/  8   N/A           1/ 4
EASTERN LI SOUND 0700            61 53  180/  2/  2   N/A
ROBBINS REEF     0700            71     180/  8/  9 1018.1
$$


>>>>>>>>>>>>>>>>>>>>>>>>>>>> KEY <<<<<<<<<<<<<<<<<<<<<<<<<<<
>                                                          <
>     SKY/WX - SKY CONDITION/PRESENT WEATHER               <
>     TMP    - TEMPERATURE IN FAHRENHEIT                   <
>     DP     - DEWPOINT IN FAHRENHEIT                      <
>     RH     - RELATIVE HUMIDITY IN PERCENT                <
>     WIND   - DIRECTION AND SPEED IN MPH                  <
>     PRES   - MEAN SEA LEVEL PRESSURE IN INCHES OF HG     <
>     WCI    - WIND CHILL INDEX                            <
>     VSB    - VISIBILITY IN MILES                         <
>     HX     - HEAT INDEX                                  <
>     TC     - TEMPERATURE IN CELSIUS                      <
>     VRB    - VARIABLE WIND DIRECTION                     <
>                                                          <
>>>>>>>>>>>>>>>>>>>>>>>>>>>> KEY <<<<<<<<<<<<<<<<<<<<<<<<<<<






USA.gov is the U.S. government's official web portal to all federal, state and local government web resources and services.